Home > Weather > Glyfada > Past weeks

Flag for Greece Past Weather in Glyfada, Greece — Yesterday and Last 2 Weeks

Now
86 °F

Sunny.


Feels Like: 85 °F
Forecast: 75 / 90 °F
Wind: 12 mph from Northeast

Location: Eleftherios Venizelos International Airport

Current Time: Jul 2, 2016 at 10:34:51 AM

Latest Report: Jul 2, 2016 at 9:50 AM


Visibility: 10 mi

Pressure: 29.95 "Hg

Humidity: 40%

Dew Point: 59 °F

Location of GlyfadaLocation

Past Weather in Glyfada — Graph

°F

Glyfada Temperature Yesterday

Maximum temperature yesterday: 91 °F (at 3:50 PM)
Minimum temperature yesterday: 66 °F (at 5:50 AM)
Average temperature yesterday: 81 °F

High & Low Weather Summary for the Past Weeks

 TemperatureHumidityPressure
High100 °F (Jun 18, 2:50 PM)88% (Jun 28, 8:20 PM)30.07 "Hg (Jun 28, 8:20 PM)
Low64 °F (Jun 28, 8:20 PM)17% (Jun 17, 3:20 PM)29.71 "Hg (Jun 25, 6:50 PM)
Average83 °F49%29.90 "Hg
* Reported Jun 17 9:20 AM — Jul 2 9:20 AM, Glyfada, Weather by CustomWeather, © 2016

Note: Actual official high and low records may vary slightly from our data, if they occured in-between our weather recording intervals... More about our weather records

Advertising

Glyfada Weather History for the Previous 24 Hours

Scroll right to see more
 ConditionsComfort  
Time TempWeatherWind HumidityBarometerVisibility
9:20 AM
Sat, Jul 2
86 °FPassing clouds.12 mph40%29.95 "HgN/A
8:50 AM86 °FSunny.8 mph38%29.95 "Hg10 mi
8:20 AM82 °FSunny.6 mph48%29.95 "Hg10 mi
7:50 AM81 °FSunny.2 mph48%29.95 "Hg10 mi
7:20 AM79 °FSunny.1 mph51%29.95 "Hg10 mi
6:50 AM73 °FClear.2 mph61%29.92 "Hg10 mi
6:20 AM72 °FClear.3 mph65%29.92 "Hg10 mi
5:50 AM72 °FClear.3 mph65%29.92 "Hg10 mi
5:20 AM70 °FClear.1 mph69%29.92 "Hg10 mi
4:50 AM77 °FClear.3 mph57%29.92 "Hg10 mi
4:20 AM72 °FClear.1 mph65%29.95 "Hg10 mi
3:50 AM73 °FClear.No wind65%29.95 "Hg10 mi
3:20 AM70 °FClear.3 mph73%29.95 "Hg10 mi
2:50 AM72 °FClear.1 mph69%29.95 "Hg10 mi
2:20 AM73 °FClear.5 mph69%29.95 "Hg10 mi
1:50 AM70 °FClear.3 mph78%29.95 "Hg10 mi
1:20 AM73 °FClear.3 mph69%29.98 "Hg10 mi
12:50 AM75 °FClear.3 mph65%29.98 "Hg10 mi
12:20 AM75 °FClear.5 mph65%29.98 "Hg10 mi
11:50 PM
Fri, Jul 1
75 °FClear.1 mph65%29.98 "Hg10 mi
11:20 PM75 °FClear.3 mph65%29.98 "Hg10 mi
10:50 PM81 °FClear.5 mph51%29.98 "Hg10 mi
10:20 PM81 °FClear.2 mph51%29.98 "Hg10 mi
9:50 PM82 °FClear.1 mph45%29.95 "Hg10 mi
9:20 PM82 °FSunny.5 mph45%29.95 "Hg10 mi
8:50 PM82 °FSunny.6 mph45%29.95 "Hg10 mi
8:20 PM84 °FSunny.7 mph43%29.95 "Hg10 mi
7:50 PM86 °FSunny.9 mph38%29.95 "Hg10 mi
7:20 PM86 °FPassing clouds.10 mph40%29.95 "HgN/A
6:50 PM88 °FSunny.14 mph33%29.95 "Hg10 mi
6:20 PM88 °FSunny.15 mph35%29.95 "Hg10 mi
5:50 PM88 °FSunny.14 mph33%29.95 "Hg10 mi
5:20 PM88 °FSunny.12 mph38%29.95 "Hg10 mi
4:50 PM90 °FPassing clouds.16 mph33%29.95 "HgN/A
4:20 PM90 °FPassing clouds.17 mph33%29.95 "HgN/A
3:50 PM91 °FPassing clouds.15 mph34%29.95 "HgN/A
3:20 PM90 °FPassing clouds.15 mph36%29.98 "HgN/A
2:50 PM90 °FPassing clouds.14 mph36%29.98 "HgN/A
2:20 PM88 °FPassing clouds.16 mph38%29.98 "HgN/A
1:50 PM90 °FPassing clouds.15 mph36%29.98 "HgN/A
1:20 PM90 °FPassing clouds.13 mph36%29.98 "HgN/A
12:50 PM88 °FPassing clouds.14 mph38%29.98 "HgN/A
12:20 PM90 °FSunny.14 mph36%29.98 "Hg10 mi
11:50 AM88 °FSunny.13 mph38%29.98 "Hg10 mi
11:20 AM86 °FPassing clouds.10 mph40%30.01 "HgN/A
10:50 AM86 °FSunny.12 mph40%30.01 "Hg10 mi
10:20 AM86 °FPassing clouds.9 mph40%30.01 "HgN/A
Weather by CustomWeather, © 2016

See weather overviewHow to use our weather pages